星链-33637 (STARLINK-33637)

导读

STARLINK-33637是美国太空探索技术公司Starlink星链互联网卫星星座的一员,星链计划旨在为全球提供高速低延迟互联网服务。该卫星于2025年4月6日由美国发射入轨,加入规模庞大的星链卫星网络,承担地面网络覆盖与互联网通信传输任务,推进全球全域互联布局。

基本信息
目录编号:
63470
目录名称:
STARLINK-33637
国际标识:
2025-070L
轨道中心:
EARTH
卫星名称:
星链-33637
卫星全名:
星链-33637 (STARLINK-33637)
卫星状态:
在轨 (已飞行516 天)
发射日期:
2025-04-06 UTC
国别 :
美国 (US)
星等 :
--
轨道信息
数据来源 国际轨道数据
星历时间: 2026-09-04T14:35:23+0800
6小时前
查看轨道信息
半长轴: 6861.139km
偏心率: 0.0001652
轨道倾角: 43.000°
近地点辐角 270.185°
升交点赤经 331.679°
平近点角 89.882°
近地点: 481.868km
远地点: 484.136km
周期: 94.266分钟
每日圈数: 15.27596
详细信息
固有亮度:
5
最大亮度:
2.5
卫星平台:
Starlink V1.0
覆盖范围:
全球
运营商:
太空探索技术公司
运营商所在国:
美国
制造商(研发单位):
太空探索技术公司
制造商所在国:
美国
使用方式:
暂无
卫星简介
Starlink 计划是 SpaceX 推出的全球卫星互联网项目,通过发射低轨道卫星,为全球尤其是偏远地区提供高速、低延迟的互联网服务。自 2019 年起,Starlink 已部署数千颗卫星,旨在缩小全球数字鸿沟,推动互联网普及。该项目还为军事、航空等行业提供通信支持,带来广泛经济效益。
2D轨道图
3D轨道图
轨道高度分析图
轨道倾角分析图
轨道综合分析图
查看轨道综合分析图
交会数据列表
事件ID 空间交会对象 最接近时刻(TCA) 交会距离 交会风险概率(CRP) 交会风险指数(CRI) 操作
CDM_260904-164105-603106-347022
2026-09-04T
16:41:07+0000
0.454 km
远距离
2.012509E-4 高风险 0.81
CDM_260905-013805-609406-347021
2026-09-05T
01:38:03+0000
0.559 km
远距离
1.063307E-4 高风险 0.76
CDM_260904-221105-842306-347021
2026-09-04T
22:11:55+0000
0.593 km
远距离
1.062996E-4 高风险 0.76
CDM_260904-054305-842306-347021
2026-09-04T
05:43:17+0000
1.050 km
极远距离
1.753218E-5 中风险 0.6
CDM_260904-040905-842306-347021
2026-09-04T
04:09:08+0000
1.090 km
极远距离
1.53835E-5 中风险 0.59
CDM_260905-000305-609406-347021
2026-09-05T
00:03:54+0000
1.791 km
极远距离
2.58019E-6 低风险 0.43
CDM_260905-115405-276006-347021
2026-09-05T
11:54:41+0000
1.994 km
极远距离
2.221272E-6 低风险 0.42
CDM_260904-181505-603106-347021
2026-09-04T
18:15:16+0000
2.028 km
极远距离
2.15017E-6 低风险 0.42
CDM_260905-031205-609406-347021
2026-09-05T
03:12:12+0000
2.156 km
极远距离
1.623114E-6 低风险 0.39
CDM_260904-234605-842306-347021
2026-09-04T
23:46:04+0000
2.451 km
极远距离
1.451234E-6 低风险 0.38